Tiempo atmosférico en la estación meteorológica de San Bartolome Tirajana, Las Tirajanas, Las Palmas (960 m.)



Fecha
DESCASC
Temp. máxima en grados centígrados (hora)
DESCASC
Temp. mínima en grados centígrados (hora)
DESCASC
Temp. media en grados centígrados
DESCASC
Racha de viento máxima en m/sg (hora)
DESCASC
Velocidad máxima media en intervalos de 10 minutos(hora)
DESCASC
Precipitaciones diarias en mm
DESCASC
Precipitaciones de 00:00 a 06:00 en mm
DESCASC
Precipitaciones de 06:00 a 12:00 en mm
DESCASC
Precipitaciones de 12:00 a 18:00 en mm
DESCASC
Precipitaciones de 18:00 a 24:00 en mm
DESCASC
05-04-2020 23.4 (15:30) 11.3 (03:40) 17.3 5.83 (14:40) 2.5 (14:50) 0 0 0 0 0
04-04-2020 23.3 (13:30) 13.1 (23:59) 18.2 13.33 (04:20) 6.67 (04:50) 0 0 0 0 0
03-04-2020 22 (15:20) 10 (04:10) 16 12.22 (21:20) 6.11 (21:20) 0 0 0 0 0
02-04-2020 21.5 (14:10) 9.9 (00:00) 15.7 5.28 (12:50) 2.5 (12:50) 0 0 0 0 0
01-04-2020 21.3 (14:00) 9.6 (00:00) 15.4 5.83 (13:00) 2.22 (13:00) 0 0 0 0 0
31-03-2020 20.6 (12:50) 9.3 (00:00) 15 6.11 (12:30) 2.22 (12:30) 0 0 0 0 0
30-03-2020 20.8 (15:40) 8.2 (00:00) 14.5 6.67 (16:30) 3.33 (14:40) 0 0 0 0 0
29-03-2020 17.6 (12:50) 7.4 (00:00) 12.5 5 (12:50) 2.22 (03:50) 0 0 0 0 0
28-03-2020 16.8 (10:50) 8 (00:00) 12.4 5.28 (10:20) 2.22 (15:10) 0.2 0.2 0 0 0
27-03-2020 17.1 (13:20) 7.2 (00:00) 12.2 5.56 (13:20) 1.94 (05:20) 8.2 0 0.2 3.8 4.2
26-03-2020 14.7 (09:50) 7.5 (00:00) 11.1 4.17 (09:50) 1.94 (09:50) 1.6 0 0 1.6 0
25-03-2020 17.5 (11:20) 8.2 (00:00) 12.8 6.94 (11:10) 3.33 (09:40) 0.2 0 0 0.2 0
24-03-2020 19.1 (14:10) 9.9 (00:00) 14.5 13.33 (01:20) 5.28 (02:50) 0 0 0 0 0
23-03-2020 11.7 (13:50) 7.3 (00:00) 9.5 24.72 (08:40) 13.06 (13:00) 16.4 4.8 11 0.6 0
22-03-2020 17.4 (13:10) 7.7 (03:30) 12.5 18.89 (22:30) 9.17 (21:20) 0.2 0 0 0 0.2
21-03-2020 17.4 (13:30) 9.1 (00:00) 13.3 8.33 (16:50) 3.61 (15:20) 0 0 0 0 0
20-03-2020 19.6 (13:00) 9.9 (00:00) 14.8 9.72 (01:50) 4.44 (09:50) 0 0 0 0 0
19-03-2020 16.8 (13:40) 10.6 (00:00) 13.7 20.83 (02:10) 10.28 (08:30) 0 0 0 0 0
18-03-2020 17.2 (15:30) 8.6 (00:00) 12.9 17.5 (22:20) 6.39 (09:40) 0 0 0 0 0
17-03-2020 19.1 (13:50) 8.2 (00:00) 13.7 7.78 (22:50) 2.78 (23:00) 0 0 0 0 0
16-03-2020 19.2 (14:40) 9.8 (00:00) 14.5 16.67 (06:10) 8.61 (06:10) 0 0 0 0 0
15-03-2020 16.4 (15:20) 8.1 (00:00) 12.3 12.5 (17:30) 7.22 (17:40) 0 0 0 0 0
14-03-2020 20.2 (13:30) 9.7 (00:00) 15 8.33 (13:30) 2.5 (15:10) 0 0 0 0 0
13-03-2020 25.8 (11:50) 15.3 (23:59) 20.5 5 (11:30) 2.22 (02:50) 0 0 0 0 0
12-03-2020 27.4 (13:30) 16.2 (00:00) 21.8 7.5 (12:40) 2.78 (12:40) 0 0 0 0 0
11-03-2020 26.6 (13:40) 16.5 (00:00) 21.6 6.39 (16:10) 2.5 (16:40) 0 0 0 0 0
10-03-2020 27.3 (11:30) 16.2 (00:00) 21.8 7.5 (01:40) 2.78 (00:50) 0 0 0 0 0
09-03-2020 25.2 (14:00) 16.6 (00:00) 20.9 10.83 (22:30) 7.22 (22:30) 0 0 0 0 0
08-03-2020 26.5 (14:00) 18.7 (00:00) 22.6 11.39 (11:10) 5 (11:20) 0 0 0 0 0

Gráficas

Temp. máximas Temp. mínimas Temp. medias Precipitaciones Rachas de viento máximas Velocidades máximas media en intervalos de 10 minutos

Datos horarios

Fecha y hora oficial Temperatura (ºC) Velocidad del viento (km/h) Dirección del viento Racha (km/h) Dirección de racha Precipitación (mm) Presión (hPa) Tendencia (hPa) Humedad (%)
2020-04-06 23:00:00 15.6 2 Nordeste 8 Noroeste 0 -- -- 68
2020-04-06 22:00:00 14.9 7 Noroeste 13 Noroeste 0 -- -- 86
2020-04-06 21:00:00 15.5 2 Sudeste 5 Sudeste 0 -- -- 88
2020-04-06 20:00:00 16.8 3 Este 6 Este 0 -- -- 81
2020-04-06 19:00:00 18.5 4 Este 11 Sur 0 -- -- 75
2020-04-06 18:00:00 20.2 5 Sur 14 Sudeste 0 -- -- 69
2020-04-06 17:00:00 20.8 4 Este 15 Sudeste 0 -- -- 67
2020-04-06 16:00:00 23 5 Este 18 Este 0 -- -- 60
2020-04-06 15:00:00 24.4 6 Este 19 Este 0 -- -- 57
2020-04-06 14:00:00 23.6 7 Este 17 Este 0 -- -- 58
2020-04-06 13:00:00 23.2 8 Este 18 Este 0 -- -- 56
2020-04-06 12:00:00 22.3 7 Este 20 Este 0 -- -- 56
2020-04-06 11:00:00 21.4 8 Este 14 Este 0 -- -- 54
2020-04-06 10:00:00 19 4 Este 8 Este 0 -- -- 58
2020-04-06 09:00:00 -- 3 Este 10 Noroeste 0 -- -- --
2020-04-06 08:00:00 13.8 7 Noroeste 9 Noroeste 0 -- -- 56
2020-04-06 07:00:00 14.2 4 Noroeste 6 Noroeste 0 -- -- 57
2020-04-06 06:00:00 15 3 Sudeste 8 Oeste 0 -- -- 58
2020-04-06 05:00:00 15.2 5 Sudoeste 10 Oeste 0 -- -- 55
2020-04-06 04:00:00 14.6 3 Noroeste 13 Oeste 0 -- -- 60
2020-04-06 03:00:00 14.2 5 Oeste 10 Oeste 0 -- -- 66
2020-04-06 02:00:00 14.2 4 Sudoeste 11 Noroeste 0 -- -- 68
2020-04-06 01:00:00 14.3 0 Calma 9 Noroeste 0 -- -- 76
2020-04-06 00:00:00 13.2 4 Oeste 9 Oeste 0 -- -- 90
2020-04-05 23:00:00 13.2 3 Este 6 Sudoeste 0 -- -- 92
2020-04-05 22:00:00 13.6 3 Nordeste 6 Este 0 -- -- 88
2020-04-05 21:00:00 14.6 0 Calma 6 Sudeste 0 -- -- 85
2020-04-05 20:00:00 15.9 3 Sudeste 8 Sudeste 0 -- -- 78
2020-04-05 19:00:00 17.7 4 Este 9 Este 0 -- -- 71
2020-04-05 18:00:00 19.1 4 Sudeste 12 Nordeste 0 -- -- 66
2020-04-05 17:00:00 20.4 4 Este 20 Este 0 -- -- 60
2020-04-05 16:00:00 23 8 Este 21 Este 0 -- -- 52
2020-04-05 15:00:00 23 5 Este 21 Este 0 -- -- 53
2020-04-05 14:00:00 22.8 7 Este 19 Este 0 -- -- 54
2020-04-05 13:00:00 22.1 6 Este 17 Este 0 -- -- 56
2020-04-05 12:00:00 20.7 5 Este 15 Este 0 -- -- 57
2020-04-05 11:00:00 19 6 Este 14 Este 0 -- -- 57
2020-04-05 10:00:00 16.3 4 Este 10 Este 0 -- -- 67
2020-04-05 09:00:00 12.8 4 Sur 11 Sudeste 0 -- -- 82
2020-04-05 08:00:00 11.9 4 Sur 7 Sur 0 -- -- 84
2020-04-05 07:00:00 12 4 Oeste 6 Oeste 0 -- -- 62
2020-04-05 06:00:00 13.4 3 Este 10 Noroeste 0 -- -- 55
2020-04-05 05:00:00 12.2 7 Noroeste 10 Noroeste 0 -- -- 57
2020-04-05 04:00:00 11.5 2 Nordeste 8 Oeste 0 -- -- 81
2020-04-05 03:00:00 11.9 0 Calma 9 Sudeste 0 -- -- 90
2020-04-05 02:00:00 12.6 2 Oeste 6 Sudoeste 0 -- -- 91
2020-04-05 01:00:00 12.5 2 Sudoeste 6 Sudoeste 0 -- -- 91
2020-04-05 00:00:00 13.1 4 Noroeste 6 Noroeste 0 -- -- 89
2020-04-04 23:00:00 13.9 0 Calma 5 Sudoeste 0 -- -- 90
2020-04-04 22:00:00 14.2 2 Sur 6 Este 0 -- -- 91
2020-04-04 21:00:00 14.5 0 Calma 8 Este 0 -- -- 89
2020-04-04 20:00:00 15.8 4 Este 9 Este 0 -- -- 82
2020-04-04 19:00:00 17.2 4 Este 14 Este 0 -- -- 74
2020-04-04 18:00:00 17.9 5 Este 12 Este 0 -- -- 71
2020-04-04 17:00:00 17.9 6 Sudeste 20 Sudeste 0 -- -- 71
2020-04-04 16:00:00 21 6 Este 18 Sudeste 0 -- -- 61
2020-04-04 15:00:00 21.4 8 Este 21 Sudeste 0 -- -- 58
2020-04-04 14:00:00 21.6 8 Este 26 Este 0 -- -- 58
2020-04-04 13:00:00 22.8 6 Este 19 Sudeste 0 -- -- 52
2020-04-04 12:00:00 20.5 5 Noroeste 25 Oeste 0 -- -- 42
2020-04-04 11:00:00 18.7 9 Oeste 35 Oeste 0 -- -- 40
2020-04-04 10:00:00 16.9 20 Oeste 41 Oeste 0 -- -- 51
2020-04-04 09:00:00 15.9 13 Oeste 35 Oeste 0 -- -- 49
2020-04-04 08:00:00 14.4 14 Oeste 39 Oeste 0 -- -- 55
2020-04-04 07:00:00 14.2 18 Oeste 38 Oeste 0 -- -- 59
2020-04-04 06:00:00 13.5 21 Oeste 43 Oeste 0 -- -- 72
2020-04-04 05:00:00 13.9 20 Oeste 48 Oeste 0 -- -- 74
2020-04-04 04:00:00 13.7 22 Oeste 46 Oeste 0 -- -- 78
2020-04-04 03:00:00 14 15 Oeste 36 Oeste 0 -- -- 78
2020-04-04 02:00:00 14.1 14 Oeste 36 Oeste 0 -- -- 79
2020-04-04 01:00:00 14.3 10 Oeste 29 Oeste 0 -- -- 80
2020-04-04 00:00:00 14.5 9 Oeste 34 Noroeste 0 -- -- 82
2020-04-03 23:00:00 14.9 14 Oeste 36 Oeste 0 -- -- 77
2020-04-03 22:00:00 14.9 17 Oeste 44 Oeste 0 -- -- 80
2020-04-03 21:00:00 15.2 13 Oeste 33 Oeste 0 -- -- 77
2020-04-03 20:00:00 15.7 12 Oeste 36 Oeste 0 -- -- 73
2020-04-03 19:00:00 17.8 7 Oeste 27 Oeste 0 -- -- 66
2020-04-03 18:00:00 20.2 7 Oeste 21 Sudoeste 0 -- -- 57
2020-04-03 17:00:00 21.3 7 Sudoeste 26 Noroeste 0 -- -- 53
2020-04-03 16:00:00 20.4 9 Sudoeste 29 Sudoeste 0 -- -- 54
2020-04-03 15:00:00 21.2 9 Nordeste 24 Nordeste 0 -- -- 47
2020-04-03 14:00:00 20.7 9 Este 21 Nordeste 0 -- -- 56
2020-04-03 13:00:00 19.9 5 Este 18 Sudeste 0 -- -- 60
2020-04-03 12:00:00 18.8 6 Este 17 Sudeste 0 -- -- 63
2020-04-03 11:00:00 16.2 5 Este 12 Este 0 -- -- 73
2020-04-03 10:00:00 13.5 3 Este 9 Este 0 -- -- 76
2020-04-03 09:00:00 13 2 Este 5 Noroeste 0 -- -- 61
2020-04-03 08:00:00 12.2 0 Calma 6 Sudoeste 0 -- -- 59
2020-04-03 07:00:00 11.9 3 Sur 7 Oeste 0 -- -- 63
2020-04-03 06:00:00 11.3 3 Sudoeste 8 Noroeste 0 -- -- 69
2020-04-03 05:00:00 11.3 2 Oeste 6 Sudoeste 0 -- -- 86
2020-04-03 04:00:00 10.1 2 Oeste 6 Sudoeste 0 -- -- 95
2020-04-03 03:00:00 10.5 5 Sudoeste 8 Sur 0 -- -- 95
2020-04-03 02:00:00 11.4 3 Sur 6 Oeste 0 -- -- 95
2020-04-03 01:00:00 11.7 3 Oeste 6 Oeste 0 -- -- 94
2020-04-03 00:00:00 11.9 0 Calma 5 Este 0 -- -- 93
2020-04-02 23:00:00 11.8 2 Norte 5 Este 0 -- -- 93
2020-04-02 22:00:00 12.1 2 Oeste 8 Sudoeste 0 -- -- 90
2020-04-02 21:00:00 13 2 Este 5 Sudeste 0 -- -- 87
2020-04-02 20:00:00 14.5 2 Sudeste 8 Este 0 -- -- 80
2020-04-02 19:00:00 16.1 4 Este 13 Este 0 -- -- 73
2020-04-02 18:00:00 17.3 5 Este 14 Este 0 -- -- 69
2020-04-02 17:00:00 19 8 Este 17 Este 0 -- -- 64
2020-04-02 16:00:00 19.6 7 Este 15 Este 0 -- -- 63
2020-04-02 15:00:00 20.5 6 Este 18 Este 0 -- -- 60
2020-04-02 14:00:00 21.2 8 Este 17 Sudeste 0 -- -- 57
2020-04-02 13:00:00 19.7 6 Este 19 Sudeste 0 -- -- 58
2020-04-02 12:00:00 18.5 8 Este 15 Este 0 -- -- 60
2020-04-02 11:00:00 17.2 6 Este 15 Este 0 -- -- 60
2020-04-02 10:00:00 16.3 6 Este 13 Este 0 -- -- 50
2020-04-02 09:00:00 13.4 0 Calma 6 Este 0 -- -- 55
2020-04-02 08:00:00 12.1 0 Calma 7 Sudeste 0 -- -- 46
2020-04-02 07:00:00 11.9 6 Sudoeste 9 Sudoeste 0 -- -- 48
2020-04-02 06:00:00 12.2 3 Sudoeste 6 Sudoeste 0 -- -- 48
2020-04-02 05:00:00 11.6 3 Noroeste 6 Oeste 0 -- -- 55
2020-04-02 04:00:00 12.1 2 Sur 6 Oeste 0 -- -- 57
2020-04-02 03:00:00 11.2 0 Calma 8 Oeste 0 -- -- 65
2020-04-02 02:00:00 10.9 2 Sur 7 Oeste 0 -- -- 80
2020-04-02 01:00:00 10.1 5 Oeste 6 Oeste 0 -- -- 86
2020-04-02 00:00:00 10.9 4 Oeste 6 Oeste 0 -- -- 89
2020-04-01 23:00:00 11.6 3 Oeste 6 Noroeste 0 -- -- 89
2020-04-01 22:00:00 12.3 2 Este 5 Este 0 -- -- 92
2020-04-01 21:00:00 12.7 0 Calma 4 Este 0 -- -- 88
2020-04-01 20:00:00 13.9 2 Sudoeste 7 Sur 0 -- -- 84
2020-04-01 19:00:00 15.4 3 Sudeste 12 Sudeste 0 -- -- 78
2020-04-01 18:00:00 16.6 4 Sudeste 13 Este 0 -- -- 73
2020-04-01 17:00:00 16.4 5 Este 14 Sudeste 0 -- -- 73
2020-04-01 16:00:00 17.3 5 Este 15 Este 0 -- -- 70
2020-04-01 15:00:00 19.5 4 Este 16 Nordeste 0 -- -- 63
2020-04-01 14:00:00 21.3 6 Este 21 Sudeste 0 -- -- 58
2020-04-01 13:00:00 20.3 8 Este 21 Este 0 -- -- 60
2020-04-01 12:00:00 18.8 7 Este 18 Este 0 -- -- 62
2020-04-01 11:00:00 16.5 5 Este 11 Nordeste 0 -- -- 70
2020-04-01 10:00:00 13.1 4 Este 10 Este 0 -- -- 84
2020-04-01 09:00:00 12.1 0 Calma 6 Este 0 -- -- 85
2020-04-01 08:00:00 9.6 5 Sudoeste 8 Sudoeste 0 -- -- 85
2020-04-01 07:00:00 10.1 3 Sur 7 Norte 0 -- -- 76
2020-04-01 06:00:00 9.7 6 Oeste 9 Noroeste 0 -- -- 87
2020-04-01 05:00:00 10 2 Oeste 10 Sudeste 0 -- -- 88
2020-04-01 04:00:00 10.3 6 Sudoeste 10 Oeste 0 -- -- 91
2020-04-01 03:00:00 11.8 0 Calma 4 Noroeste 0 -- -- 90
2020-04-01 02:00:00 12.1 0 Calma 5 Este 0 -- -- 92
2020-04-01 01:00:00 12.3 0 Calma 8 Sudeste 0 -- -- 93
2020-04-01 00:00:00 12.3 0 Calma 7 Sudeste 0 -- -- 93
2020-03-31 23:00:00 12.5 0 Calma 6 Este 0 -- -- 93
2020-03-31 22:00:00 13 0 Calma 8 Este 0 -- -- 93
2020-03-31 21:00:00 13.3 2 Sudeste 10 Sur 0 -- -- 93
2020-03-31 20:00:00 13.7 2 Norte 10 Sur 0 -- -- 91
2020-03-31 19:00:00 14.3 4 Sudeste 13 Sur 0 -- -- 86
2020-03-31 18:00:00 15.4 7 Sur 14 Sudoeste 0 -- -- 81
2020-03-31 17:00:00 16.9 4 Sur 12 Sudoeste 0 -- -- 74
2020-03-31 16:00:00 17.2 4 Sudoeste 21 Sudeste 0 -- -- 73
2020-03-31 15:00:00 18.1 5 Este 18 Este 0 -- -- 68
2020-03-31 14:00:00 17.9 5 Este 20 Este 0 -- -- 69
2020-03-31 13:00:00 20.3 6 Este 22 Nordeste 0 -- -- 61
2020-03-31 12:00:00 18.6 6 Este 15 Este 0 -- -- 60
2020-03-31 11:00:00 16.8 5 Este 15 Este 0 -- -- 65
2020-03-31 10:00:00 13.7 4 Este 10 Noroeste 0 -- -- 78
2020-03-31 09:00:00 10.4 5 Noroeste 8 Noroeste 0 -- -- 93
2020-03-31 08:00:00 9.5 5 Noroeste 10 Noroeste 0 -- -- 96
2020-03-31 07:00:00 9.6 4 Oeste 8 Oeste 0 -- -- 95
2020-03-31 06:00:00 9.8 2 Sudoeste 8 Noroeste 0 -- -- 94
2020-03-31 05:00:00 10.2 4 Noroeste 11 Noroeste 0 -- -- 94
2020-03-31 04:00:00 9.9 3 Norte 5 Sudeste 0 -- -- 92
2020-03-31 03:00:00 10.6 0 Calma 6 Noroeste 0 -- -- 90
2020-03-31 02:00:00 10.8 2 Sur 6 Sudoeste 0 -- -- 89
2020-03-31 01:00:00 10.5 6 Oeste 9 Oeste 0 -- -- 94
2020-03-31 00:00:00 11.5 0 Calma 7 Oeste 0 -- -- 96
2020-03-30 23:00:00 11.8 3 Nordeste 9 Este 0 -- -- 94
2020-03-30 22:00:00 12.6 4 Norte 13 Oeste 0 -- -- 89
2020-03-30 21:00:00 13.6 5 Norte 18 Noroeste 0 -- -- 76
2020-03-30 20:00:00 14.3 4 Este 9 Nordeste 0 -- -- 83
2020-03-30 19:00:00 17.2 4 Este 15 Sudeste 0 -- -- 69
2020-03-30 18:00:00 18.6 6 Este 21 Sudeste 0 -- -- 64
2020-03-30 17:00:00 19.8 4 Este 24 Este 0 -- -- 61
2020-03-30 16:00:00 19.6 9 Nordeste 22 Norte 0 -- -- 61
2020-03-30 15:00:00 20.1 6 Este 23 Este 0 -- -- 62
2020-03-30 14:00:00 20.4 5 Este 21 Sudeste 0 -- -- 60
2020-03-30 13:00:00 19.5 8 Este 22 Este 0 -- -- 62
2020-03-30 12:00:00 18.1 6 Este 15 Este 0 -- -- 63
2020-03-30 11:00:00 17.3 7 Este 13 Este 0 -- -- 64
2020-03-30 10:00:00 15 3 Este 11 Este 0 -- -- 67
2020-03-30 09:00:00 12.8 0 Calma 6 Nordeste 0 -- -- 58
2020-03-30 08:00:00 10.7 3 Oeste 8 Noroeste 0 -- -- 64
2020-03-30 07:00:00 10.7 0 Calma 6 Sudoeste 0 -- -- 67
2020-03-30 06:00:00 10.7 0 Calma 6 Noroeste 0 -- -- 68
2020-03-30 05:00:00 8.7 2 Oeste 6 Sudoeste 0 -- -- 88
2020-03-30 04:00:00 8.2 5 Noroeste 8 Noroeste 0 -- -- 96
2020-03-30 03:00:00 8.5 4 Oeste 6 Oeste 0 -- -- 96
2020-03-30 02:00:00 9.4 3 Sudoeste 8 Oeste 0 -- -- 95
2020-03-30 01:00:00 10.1 4 Oeste 10 Oeste 0 -- -- 93
2020-03-30 00:00:00 10.5 3 Este 5 Nordeste 0 -- -- 95
2020-03-29 23:00:00 10.7 2 Nordeste 5 Sudeste 0 -- -- 95
2020-03-29 22:00:00 11 3 Nordeste 5 Este 0 -- -- 93
2020-03-29 21:00:00 11.5 0 Calma 6 Sur 0 -- -- 91
2020-03-29 20:00:00 12.1 0 Calma 8 Este 0 -- -- 90
2020-03-29 19:00:00 12.8 3 Este 9 Este 0 -- -- 88
2020-03-29 18:00:00 12.8 4 Este 10 Este 0 -- -- 87
2020-03-29 17:00:00 12.5 4 Este 9 Sudeste 0 -- -- 86
2020-03-29 16:00:00 12.7 3 Sudeste 10 Este 0 -- -- 84
2020-03-29 15:00:00 13.3 4 Este 13 Este 0 -- -- 83
2020-03-29 14:00:00 15.2 4 Este 15 Sudeste 0 -- -- 75
2020-03-29 13:00:00 17.5 6 Este 18 Este 0 -- -- 66
2020-03-29 12:00:00 16.6 6 Este 15 Sudeste 0 -- -- 63
2020-03-29 11:00:00 15.8 8 Este 17 Este 0 -- -- 61
2020-03-29 10:00:00 13.9 4 Este 11 Este 0 -- -- 68
2020-03-29 09:00:00 10.3 0 Calma 5 Nordeste 0 -- -- 71
2020-03-29 08:00:00 7.6 4 Noroeste 6 Noroeste 0 -- -- 79
2020-03-29 07:00:00 7.8 3 Oeste 5 Oeste 0 -- -- 81
2020-03-29 06:00:00 8.1 4 Oeste 8 Noroeste 0 -- -- 79
2020-03-29 05:00:00 8 4 Oeste 9 Noroeste 0 -- -- 82
2020-03-29 04:00:00 8.3 7 Noroeste 9 Noroeste 0 -- -- 78
2020-03-29 00:00:00 8.8 0 Calma 6 Sudoeste 0 -- -- 90
2020-03-28 23:00:00 9.2 4 Oeste 6 Noroeste 0 -- -- 93
2020-03-28 22:00:00 10.6 0 Calma 4 Este 0 -- -- 92
2020-03-28 21:00:00 11.1 0 Calma 5 Este 0 -- -- 90
2020-03-28 20:00:00 11.4 2 Sur 9 Sur 0 -- -- 89
2020-03-28 19:00:00 11.9 0 Calma 8 Sudeste 0 -- -- 87
2020-03-28 18:00:00 12.2 2 Este 9 Este 0 -- -- 87
2020-03-28 17:00:00 12.3 3 Oeste 10 Sudoeste 0 -- -- 86
2020-03-28 16:00:00 12 5 Sur 14 Sur 0 -- -- 88
2020-03-28 15:00:00 13.1 6 Sudeste 17 Sur 0 -- -- 82
2020-03-28 14:00:00 13.2 8 Sur 18 Sur 0 -- -- 83
2020-03-28 13:00:00 14.4 5 Sur 19 Sudeste 0 -- -- 76
2020-03-28 12:00:00 16.2 5 Sudeste 17 Nordeste 0 -- -- 67
2020-03-28 11:00:00 16.1 6 Este 19 Este 0 -- -- 70
2020-03-28 10:00:00 14.9 7 Este 15 Este 0 -- -- 72
2020-03-28 09:00:00 13.2 4 Nordeste 9 Este 0 -- -- 82
2020-03-28 08:00:00 10 2 Sur 6 Sudoeste 0 -- -- 86
2020-03-28 07:00:00 8.2 5 Oeste 9 Sudoeste 0 -- -- 87
2020-03-28 06:00:00 8.9 0 Calma 9 Noroeste 0 -- -- 79
2020-03-28 05:00:00 8.5 5 Oeste 10 Oeste 0 -- -- 75
2020-03-28 04:00:00 8.6 5 Sudoeste 9 Sudoeste 0 -- -- 88
2020-03-28 03:00:00 8.3 6 Noroeste 11 Noroeste 0 -- -- 95
2020-03-28 02:00:00 9.3 4 Norte 11 Noroeste 0 -- -- 89
2020-03-28 01:00:00 9.4 4 Sudoeste 8 Noroeste 0.2 -- -- 96
2020-03-28 00:00:00 9.5 4 Oeste 8 Sudoeste 0.6 -- -- 96
2020-03-27 23:00:00 9.6 4 Oeste 9 Oeste 0 -- -- 95
2020-03-27 22:00:00 9.7 3 Sudeste 14 Noroeste 0 -- -- 93
2020-03-27 21:00:00 10 3 Nordeste 5 Nordeste 0 -- -- 95
2020-03-27 20:00:00 10.4 3 Sudeste 7 Este 1.4 -- -- 95
2020-03-27 19:00:00 10.9 3 Nordeste 8 Nordeste 2.2 -- -- 95
2020-03-27 18:00:00 10.9 3 Oeste 8 Este 1.2 -- -- 94
2020-03-27 17:00:00 11.7 3 Este 10 Sudeste 0 -- -- 94
2020-03-27 16:00:00 12.4 3 Sudeste 15 Sudeste 2.6 -- -- 92
2020-03-27 15:00:00 13.9 4 Este 17 Sudeste 0 -- -- 77
2020-03-27 14:00:00 15.4 5 Este 20 Este 0 -- -- 69
2020-03-27 13:00:00 15.7 5 Este 19 Este 0 -- -- 64
2020-03-27 12:00:00 15.7 7 Este 15 Nordeste 0 -- -- 63
2020-03-27 11:00:00 12.9 5 Sudoeste 14 Este 0 -- -- 75
2020-03-27 10:00:00 14.3 5 Nordeste 15 Nordeste 0 -- -- 66
2020-03-27 09:00:00 13.5 5 Nordeste 12 Este 0.2 -- -- 70
2020-03-27 08:00:00 9.2 3 Nordeste 10 Oeste 0 -- -- 80
2020-03-27 07:00:00 7.6 6 Oeste 10 Noroeste 0 -- -- 88
2020-03-27 06:00:00 8.6 5 Noroeste 14 Noroeste 0 -- -- 86
2020-03-27 05:00:00 8.5 6 Noroeste 11 Noroeste 0 -- -- 85
2020-03-27 04:00:00 8.1 4 Noroeste 10 Noroeste 0 -- -- 88
2020-03-27 03:00:00 7.4 4 Oeste 8 Noroeste 0 -- -- 90
2020-03-27 02:00:00 7.4 5 Oeste 6 Oeste 0 -- -- 90
2020-03-27 01:00:00 7.4 3 Norte 8 Noroeste 0 -- -- 89
2020-03-27 00:00:00 7.8 4 Oeste 7 Oeste 0 -- -- 93
2020-03-26 23:00:00 8.6 3 Nordeste 13 Sudeste 0 -- -- 95
2020-03-26 22:00:00 9.2 3 Este 13 Sudeste 0 -- -- 97
2020-03-26 21:00:00 9.3 3 Este 6 Sudeste 0 -- -- 97
2020-03-26 20:00:00 9.6 2 Este 6 Este 0 -- -- 97
2020-03-26 19:00:00 9.7 0 Calma 7 Este 0 -- -- 96
2020-03-26 18:00:00 10.2 2 Oeste 8 Este 0.6 -- -- 96
2020-03-26 17:00:00 10.5 2 Oeste 8 Nordeste 0.6 -- -- 95
2020-03-26 16:00:00 10.6 3 Oeste 8 Sudeste 0.2 -- -- 94
2020-03-26 15:00:00 10.7 2 Sudeste 8 Este 0 -- -- 94
2020-03-26 14:00:00 11.2 3 Este 12 Este 0.2 -- -- 91
2020-03-26 13:00:00 11.9 3 Este 11 Este 0 -- -- 84
2020-03-26 12:00:00 13.5 4 Este 14 Sudeste 0 -- -- 75
2020-03-26 11:00:00 14.2 5 Este 14 Este 0 -- -- 65
2020-03-26 10:00:00 14.6 6 Este 15 Este 0 -- -- 62
2020-03-26 09:00:00 13.1 5 Nordeste 12 Este 0 -- -- 72
2020-03-26 08:00:00 9.8 4 Nordeste 8 Oeste 0 -- -- 81
2020-03-26 07:00:00 7.5 5 Oeste 8 Noroeste 0 -- -- 81
2020-03-26 06:00:00 8.5 4 Oeste 9 Oeste 0 -- -- 72
2020-03-26 05:00:00 8 6 Oeste 8 Oeste 0 -- -- 83
2020-03-26 04:00:00 9 2 Oeste 7 Noroeste 0 -- -- 87
2020-03-26 03:00:00 9.1 3 Oeste 8 Sudoeste 0 -- -- 88
2020-03-26 02:00:00 8.9 3 Este 8 Sudoeste 0 -- -- 88
2020-03-26 01:00:00 8.6 0 Calma 8 Sudoeste 0 -- -- 89
2020-03-26 00:00:00 8.3 2 Noroeste 8 Noroeste 0 -- -- 90
2020-03-25 23:00:00 8.4 5 Oeste 8 Noroeste 0 -- -- 90
2020-03-25 22:00:00 8.9 2 Noroeste 10 Oeste 0 -- -- 92
2020-03-25 21:00:00 9.3 2 Noroeste 7 Este 0 -- -- 92
2020-03-25 20:00:00 10.2 2 Este 8 Este 0 -- -- 91
2020-03-25 19:00:00 10.7 2 Este 10 Sudeste 0 -- -- 91
2020-03-25 18:00:00 11.2 3 Sudeste 10 Este 0.2 -- -- 88
2020-03-25 17:00:00 11.9 3 Este 11 Este 0 -- -- 87
2020-03-25 16:00:00 11.9 3 Este 14 Sudeste 0 -- -- 87
2020-03-25 15:00:00 11.6 5 Sur 16 Sudoeste 0 -- -- 89
2020-03-25 14:00:00 12.4 10 Sudoeste 21 Sudoeste 0 -- -- 71
2020-03-25 13:00:00 14.3 4 Sudeste 18 Sur 0 -- -- 69
2020-03-25 12:00:00 15.4 6 Sur 25 Sudeste 0 -- -- 64
2020-03-25 11:00:00 16.9 6 Este 18 Este 0 -- -- 49
2020-03-25 10:00:00 14 4 Oeste 22 Este 0 -- -- 50
2020-03-25 09:00:00 11.7 3 Este 9 Este 0 -- -- 62
2020-03-25 08:00:00 10.2 4 Este 15 Noroeste 0 -- -- 83
2020-03-25 07:00:00 9.6 0 Calma 5 Noroeste 0 -- -- 85
2020-03-25 06:00:00 9.4 0 Calma 4 Sur 0 -- -- 86
2020-03-25 05:00:00 9.7 4 Sur 7 Sudoeste 0 -- -- 79
2020-03-25 04:00:00 9.8 3 Sur 17 Noroeste 0 -- -- 85
2020-03-25 03:00:00 9.7 3 Noroeste 13 Sur 0 -- -- 81
2020-03-25 02:00:00 10 3 Este 17 Sur 0 -- -- 77
2020-03-25 01:00:00 10.1 8 Sudoeste 18 Sudoeste 0 -- -- 69
2020-03-25 00:00:00 10.3 5 Este 24 Noroeste 0 -- -- 70
2020-03-24 23:00:00 10.5 5 Oeste 28 Nordeste 0 -- -- 64
2020-03-24 22:00:00 11.4 11 Oeste 27 Noroeste 0 -- -- 65
2020-03-24 21:00:00 11.7 8 Oeste 21 Noroeste 0 -- -- 63
2020-03-24 20:00:00 12 11 Noroeste 28 Noroeste 0 -- -- 63
2020-03-24 19:00:00 12.7 4 Sudeste 13 Nordeste 0 -- -- 79
2020-03-24 18:00:00 13.6 4 Sudeste 17 Sudeste 0 -- -- 73
2020-03-24 17:00:00 14.8 5 Sudeste 24 Sudeste 0 -- -- 68
2020-03-24 16:00:00 16.7 4 Este 29 Este 0 -- -- 61
2020-03-24 15:00:00 18.5 7 Noroeste 23 Noroeste 0 -- -- 44
2020-03-24 14:00:00 18.6 7 Nordeste 21 Este 0 -- -- 51
2020-03-24 13:00:00 17.8 5 Este 33 Oeste 0 -- -- 45
2020-03-24 12:00:00 15.7 9 Noroeste 32 Noroeste 0 -- -- 54
2020-03-24 11:00:00 13.1 8 Oeste 30 Noroeste 0 -- -- 63
2020-03-24 10:00:00 12.8 5 Nordeste 30 Noroeste 0 -- -- 65
2020-03-24 09:00:00 11 5 Nordeste 28 Oeste 0 -- -- 80
2020-03-24 08:00:00 10.5 4 Oeste 29 Oeste 0 -- -- 74
2020-03-24 07:00:00 10 5 Nordeste 40 Noroeste 0 -- -- 84
2020-03-24 06:00:00 9.9 7 Sudeste 33 Oeste 0 -- -- 80
2020-03-24 05:00:00 10.2 5 Este 43 Noroeste 0 -- -- 76
2020-03-24 04:00:00 10.5 11 Norte 45 Oeste 0 -- -- 76
2020-03-24 03:00:00 10.6 10 Noroeste 46 Noroeste 0 -- -- 71
2020-03-24 02:00:00 10.3 10 Noroeste 48 Noroeste 0 -- -- 72
2020-03-24 01:00:00 10.3 12 Norte 36 Noroeste 0 -- -- 69
2020-03-24 00:00:00 10.7 15 Noroeste 49 Noroeste 0 -- -- 73
2020-03-23 23:00:00 10 8 Noroeste 37 Noroeste 0 -- -- 75
2020-03-23 22:00:00 10.4 14 Noroeste 49 Noroeste 0 -- -- 71
2020-03-23 21:00:00 10.3 18 Norte 52 Noroeste 0 -- -- 69
2020-03-23 20:00:00 10.2 18 Norte 66 Norte 0 -- -- 69
2020-03-23 19:00:00 10.3 25 Norte 64 Norte 0 -- -- 68
2020-03-23 18:00:00 10.4 22 Norte 64 Noroeste 0 -- -- 71
2020-03-23 17:00:00 10 30 Norte 67 Norte 0 -- -- 73
2020-03-23 16:00:00 10.2 32 Norte 74 Norte 0.4 -- -- 69
2020-03-23 15:00:00 11.1 13 Norte 63 Norte 0 -- -- 80
2020-03-23 14:00:00 11.4 21 Norte 72 Norte 0 -- -- 65
2020-03-23 13:00:00 10.4 47 Norte 82 Norte 0.2 -- -- 72
2020-03-23 12:00:00 10.2 31 Norte 71 Nordeste 1.2 -- -- 78
2020-03-23 11:00:00 8.9 14 Noroeste 45 Noroeste 2.2 -- -- 83
2020-03-23 10:00:00 8.4 23 Noroeste 72 Noroeste 1.2 -- -- 81
2020-03-23 09:00:00 8.1 37 Noroeste 89 Noroeste 3.4 -- -- 82
2020-03-23 08:00:00 7.7 27 Noroeste 78 Oeste 1.2 -- -- 81
2020-03-23 07:00:00 7.8 45 Noroeste 81 Noroeste 1.8 -- -- 77
2020-03-23 06:00:00 7.3 23 Noroeste 60 Noroeste 2.6 -- -- 85
2020-03-23 05:00:00 7.5 35 Noroeste 75 Noroeste 1.2 -- -- 82
2020-03-23 04:00:00 8 24 Noroeste 64 Noroeste 0.8 -- -- 77
2020-03-23 03:00:00 9 33 Noroeste 70 Noroeste 0 -- -- 68
2020-03-23 02:00:00 9.1 25 Noroeste 60 Noroeste 0 -- -- 78
2020-03-23 01:00:00 9.4 20 Noroeste 66 Noroeste 0.2 -- -- 76
2020-03-23 00:00:00 9.8 27 Noroeste 63 Norte 0.2 -- -- 67
2020-03-22 23:00:00 10 18 Oeste 68 Noroeste 0 -- -- 64
2020-03-22 22:00:00 10.3 33 Oeste 66 Noroeste 0 -- -- 64
2020-03-22 21:00:00 10.6 30 Noroeste 64 Noroeste 0 -- -- 59
2020-03-22 20:00:00 10.7 12 Oeste 26 Oeste 0 -- -- 79
2020-03-22 19:00:00 11.9 7 Sudoeste 22 Oeste 0 -- -- 74
2020-03-22 18:00:00 13.6 3 Este 9 Sur 0 -- -- 69
2020-03-22 17:00:00 13.4 5 Sur 15 Sudeste 0 -- -- 73
2020-03-22 16:00:00 13.7 5 Sudeste 15 Sudeste 0 -- -- 69
2020-03-22 15:00:00 15.2 5 Este 19 Sudeste 0 -- -- 62
2020-03-22 14:00:00 16.3 6 Este 19 Este 0 -- -- 58
2020-03-22 13:00:00 17.1 6 Este 17 Este 0 -- -- 58
2020-03-22 12:00:00 15.6 6 Este 23 Este 0 -- -- 62
2020-03-22 11:00:00 12 5 Sur 12 Sudeste 0 -- -- 78
2020-03-22 10:00:00 12.3 5 Este 15 Este 0 -- -- 69
2020-03-22 09:00:00 12.3 5 Este 12 Este 0 -- -- 71
2020-03-22 08:00:00 9.5 3 Sur 9 Sur 0 -- -- 85
2020-03-22 07:00:00 8.2 3 Sur 6 Sudoeste 0 -- -- 88
2020-03-22 06:00:00 8.1 2 Sudoeste 6 Oeste 0 -- -- 86
2020-03-22 05:00:00 7.8 4 Sudoeste 6 Sudoeste 0 -- -- 87
2020-03-22 04:00:00 7.8 2 Sur 8 Sudoeste 0 -- -- 86
2020-03-22 03:00:00 8.3 0 Calma 9 Norte 0 -- -- 80
2020-03-22 02:00:00 8.7 8 Oeste 19 Noroeste 0 -- -- 69
2020-03-22 01:00:00 8.6 0 Calma 5 Oeste 0 -- -- 85
2020-03-22 00:00:00 9.3 0 Calma 5 Este 0 -- -- 86
2020-03-21 23:00:00 9.4 2 Nordeste 13 Sur 0 -- -- 87
2020-03-21 22:00:00 9.9 2 Sur 9 Sudeste 0 -- -- 85
2020-03-21 21:00:00 10.7 3 Sur 10 Sudeste 0 -- -- 81
2020-03-21 20:00:00 11.1 3 Sudeste 12 Sudeste 0 -- -- 78
2020-03-21 19:00:00 11.8 5 Sur 17 Sudoeste 0 -- -- 74
2020-03-21 18:00:00 13.3 8 Sudoeste 19 Sur 0 -- -- 67
2020-03-21 17:00:00 15.8 6 Sur 30 Sudoeste 0 -- -- 57
2020-03-21 16:00:00 15.4 9 Sudoeste 24 Sudoeste 0 -- -- 58
2020-03-21 15:00:00 16.2 11 Sur 28 Sudeste 0 -- -- 55
2020-03-21 14:00:00 16.3 9 Sur 26 Sur 0 -- -- 54
2020-03-21 13:00:00 16.1 8 Sur 28 Sur 0 -- -- 54
2020-03-21 12:00:00 15.3 12 Sur 24 Sur 0 -- -- 56
2020-03-21 11:00:00 14.5 5 Sudeste 14 Sur 0 -- -- 57
2020-03-21 10:00:00 11.3 4 Sur 12 Sur 0 -- -- 70
2020-03-21 09:00:00 10.3 4 Oeste 8 Sudoeste 0 -- -- 73
2020-03-21 08:00:00 9.6 2 Sur 6 Sudeste 0 -- -- 79
2020-03-21 07:00:00 9.3 0 Calma 7 Sudeste 0 -- -- 82
2020-03-21 06:00:00 9.5 3 Este 5 Este 0 -- -- 88
2020-03-21 05:00:00 9.7 0 Calma 5 Sudeste 0 -- -- 86
2020-03-21 04:00:00 9.7 0 Calma 5 Noroeste 0 -- -- 87
2020-03-21 03:00:00 9.6 2 Sudoeste 4 Noroeste 0 -- -- 88
2020-03-21 02:00:00 9.4 3 Sudeste 8 Noroeste 0 -- -- 88
2020-03-21 01:00:00 9.6 2 Oeste 7 Sur 0 -- -- 87
2020-03-21 00:00:00 10.4 2 Oeste 5 Oeste 0 -- -- 89
2020-03-20 23:00:00 10.3 0 Calma 6 Sudeste 0 -- -- 88
2020-03-20 22:00:00 11.1 3 Sur 6 Sur 0 -- -- 87
2020-03-20 21:00:00 11.9 3 Sudeste 12 Sudeste 0 -- -- 82
2020-03-20 20:00:00 12.6 3 Este 14 Oeste 0 -- -- 75
2020-03-20 19:00:00 13.8 4 Sudeste 28 Noroeste 0 -- -- 71
2020-03-20 18:00:00 14.1 12 Norte 26 Noroeste 0 -- -- 58
2020-03-20 17:00:00 15.7 4 Sudeste 15 Sudeste 0 -- -- 62
2020-03-20 16:00:00 17.7 9 Sur 18 Sur 0 -- -- 57
2020-03-20 15:00:00 16.5 6 Sur 23 Sur 0 -- -- 63
2020-03-20 14:00:00 18.2 6 Sudeste 21 Este 0 -- -- 59
2020-03-20 13:00:00 19.6 6 Sudeste 24 Sudeste 0 -- -- 53
2020-03-20 12:00:00 18.3 11 Sudeste 23 Sur 0 -- -- 53
2020-03-20 11:00:00 17.9 5 Sudeste 25 Norte 0 -- -- 54
2020-03-20 10:00:00 14.7 12 Norte 34 Nordeste 0 -- -- 58
2020-03-20 09:00:00 14.1 9 Nordeste 32 Norte 0 -- -- 62
2020-03-20 08:00:00 11.5 5 Sudeste 23 Norte 0 -- -- 72
2020-03-20 07:00:00 10.1 2 Norte 14 Noroeste 0 -- -- 76
2020-03-20 06:00:00 10.5 6 Sur 15 Sur 0 -- -- 76
2020-03-20 05:00:00 11.2 4 Nordeste 31 Nordeste 0 -- -- 76
2020-03-20 04:00:00 12 7 Este 28 Nordeste 0 -- -- 66
2020-03-20 03:00:00 12.1 6 Noroeste 33 Norte 0 -- -- 66
2020-03-20 02:00:00 12.1 10 Norte 35 Norte 0 -- -- 65
2020-03-20 01:00:00 11.8 8 Sudoeste 17 Sudoeste 0 -- -- 66
2020-03-20 00:00:00 12.2 4 Oeste 36 Nordeste 0 -- -- 69
2020-03-19 23:00:00 12.6 8 Sudeste 50 Nordeste 0 -- -- 67
2020-03-19 22:00:00 12.6 11 Nordeste 44 Nordeste 0 -- -- 65
2020-03-19 21:00:00 12.4 10 Nordeste 46 Nordeste 0 -- -- 65
2020-03-19 20:00:00 12.5 13 Norte 38 Nordeste 0 -- -- 62
2020-03-19 19:00:00 13 14 Noroeste 45 Noroeste 0 -- -- 60
2020-03-19 18:00:00 13.6 18 Norte 49 Norte 0 -- -- 57
2020-03-19 17:00:00 15.4 12 Noroeste 35 Noroeste 0 -- -- 53
2020-03-19 16:00:00 15.1 18 Norte 39 Norte 0 -- -- 54
2020-03-19 15:00:00 15.8 17 Nordeste 47 Nordeste 0 -- -- 48
2020-03-19 14:00:00 15.9 18 Nordeste 45 Noroeste 0 -- -- 42
2020-03-19 13:00:00 16.3 25 Noroeste 56 Noroeste 0 -- -- 47
2020-03-19 12:00:00 16.1 20 Noroeste 71 Noroeste 0 -- -- 42
2020-03-19 11:00:00 15.1 28 Norte 64 Norte 0 -- -- 59
2020-03-19 10:00:00 15 23 Norte 66 Norte 0 -- -- 60
2020-03-19 09:00:00 13.8 29 Norte 64 Norte 0 -- -- 63
2020-03-19 08:00:00 12.7 35 Norte 68 Norte 0 -- -- 68
2020-03-19 07:00:00 12.2 26 Noroeste 75 Norte 0 -- -- 67
2020-03-19 06:00:00 11.5 22 Noroeste 60 Noroeste 0 -- -- 68
2020-03-19 05:00:00 10.9 26 Noroeste 64 Noroeste 0 -- -- 71
2020-03-19 04:00:00 10.8 23 Norte 53 Norte 0 -- -- 70
2020-03-19 03:00:00 11.1 22 Norte 75 Noroeste 0 -- -- 59
2020-03-19 02:00:00 11.5 23 Norte 57 Noroeste 0 -- -- 65
2020-03-19 01:00:00 11.2 19 Norte 55 Norte 0 -- -- 71
2020-03-19 00:00:00 10.6 15 Norte 59 Oeste 0 -- -- 72
2020-03-18 23:00:00 10.5 16 Oeste 63 Oeste 0 -- -- 66
2020-03-18 22:00:00 10.2 8 Oeste 48 Norte 0 -- -- 65
2020-03-18 21:00:00 10.9 11 Noroeste 35 Oeste 0 -- -- 69
2020-03-18 20:00:00 11.2 17 Noroeste 61 Noroeste 0 -- -- 71
2020-03-18 19:00:00 11.6 18 Noroeste 46 Noroeste 0 -- -- 65
2020-03-18 18:00:00 12.8 7 Sur 33 Noroeste 0 -- -- 53
2020-03-18 17:00:00 13.5 8 Noroeste 30 Nordeste 0 -- -- 56
2020-03-18 16:00:00 15.1 9 Norte 28 Noroeste 0 -- -- 46
2020-03-18 15:00:00 16.4 10 Norte 24 Oeste 0 -- -- 43
2020-03-18 14:00:00 14.9 10 Nordeste 39 Nordeste 0 -- -- 47
2020-03-18 13:00:00 15.3 10 Nordeste 43 Nordeste 0 -- -- 48
2020-03-18 12:00:00 13.9 17 Nordeste 36 Nordeste 0 -- -- 55
2020-03-18 11:00:00 13.7 15 Nordeste 35 Norte 0 -- -- 55
2020-03-18 10:00:00 12.3 18 Noroeste 41 Norte 0 -- -- 57
2020-03-18 09:00:00 11.5 20 Norte 39 Norte 0 -- -- 62
2020-03-18 08:00:00 9.3 17 Noroeste 37 Noroeste 0 -- -- 71
2020-03-18 07:00:00 9.3 6 Sudoeste 32 Noroeste 0 -- -- 77
2020-03-18 06:00:00 9.7 7 Oeste 44 Noroeste 0 -- -- 73
2020-03-18 05:00:00 9.3 12 Oeste 22 Noroeste 0 -- -- 76
2020-03-18 04:00:00 8.8 5 Sudoeste 14 Sudoeste 0 -- -- 82
2020-03-18 03:00:00 9.1 0 Calma 10 Sur 0 -- -- 91
2020-03-18 02:00:00 9.5 3 Este 8 Este 0 -- -- 89
2020-03-18 01:00:00 9.5 2 Este 16 Oeste 0 -- -- 89
2020-03-18 00:00:00 9.6 6 Sur 14 Sudeste 0 -- -- 91
2020-03-17 23:00:00 9.8 10 Sur 28 Sudoeste 0 -- -- 90
2020-03-17 22:00:00 10.1 6 Sur 12 Sur 0 -- -- 89
2020-03-17 21:00:00 10.7 2 Este 10 Sudeste 0 -- -- 84
2020-03-17 20:00:00 10.8 4 Sudeste 9 Sur 0 -- -- 84
2020-03-17 19:00:00 11.9 2 Sudeste 10 Sudeste 0 -- -- 76
2020-03-17 18:00:00 13.6 3 Este 13 Sur 0 -- -- 68
2020-03-17 17:00:00 14.5 5 Sudeste 14 Sur 0 -- -- 64
2020-03-17 16:00:00 17 6 Sudeste 23 Sudeste 0 -- -- 55
2020-03-17 15:00:00 17.7 6 Sudeste 24 Sur 0 -- -- 53
2020-03-17 14:00:00 19 5 Sur 23 Sudeste 0 -- -- 49
2020-03-17 13:00:00 16.7 9 Sur 27 Este 0 -- -- 54
2020-03-17 12:00:00 17.1 5 Sudeste 19 Este 0 -- -- 50
2020-03-17 11:00:00 15.1 6 Sur 18 Este 0 -- -- 56
2020-03-17 10:00:00 14.4 5 Sudeste 19 Nordeste 0 -- -- 60
2020-03-17 09:00:00 13.1 4 Este 13 Este 0 -- -- 68
2020-03-17 08:00:00 8.8 3 Nordeste 6 Nordeste 0 -- -- 84
2020-03-17 07:00:00 8.2 3 Este 6 Oeste 0 -- -- 83
2020-03-17 06:00:00 8.6 3 Sur 6 Sur 0 -- -- 80
2020-03-17 05:00:00 8.9 4 Sudoeste 9 Sudoeste 0 -- -- 81
2020-03-17 04:00:00 9.2 0 Calma 6 Sudeste 0 -- -- 80
2020-03-17 03:00:00 9.4 2 Sudeste 5 Sur 0 -- -- 80
2020-03-17 02:00:00 9.7 0 Calma 5 Este 0 -- -- 81
2020-03-17 01:00:00 9.9 2 Sur 5 Sur 0 -- -- 84
2020-03-17 00:00:00 9.9 3 Sudoeste 8 Sudoeste 0 -- -- 88
2020-03-16 23:00:00 10.4 0 Calma 9 Sur 0 -- -- 87
2020-03-16 22:00:00 10.5 3 Sur 9 Sur 0 -- -- 87
2020-03-16 21:00:00 10.9 2 Sur 13 Sudoeste 0 -- -- 82
2020-03-16 20:00:00 11.9 4 Sur 13 Sudeste 0 -- -- 73
2020-03-16 19:00:00 13.1 8 Sur 15 Sur 0 -- -- 70
2020-03-16 18:00:00 14.7 4 Sudeste 25 Este 0 -- -- 62
2020-03-16 17:00:00 16.7 5 Este 27 Nordeste 0 -- -- 53
2020-03-16 16:00:00 16.2 19 Nordeste 33 Nordeste 0 -- -- 45
2020-03-16 15:00:00 18.9 11 Este 25 Nordeste 0 -- -- 40
2020-03-16 14:00:00 17.9 10 Este 37 Nordeste 0 -- -- 38
2020-03-16 13:00:00 17.1 16 Nordeste 44 Nordeste 0 -- -- 39
2020-03-16 12:00:00 18 5 Sudeste 20 Sur 0 -- -- 49
2020-03-16 11:00:00 16.9 5 Sudeste 18 Sur 0 -- -- 54
2020-03-16 10:00:00 15.2 8 Sudeste 32 Nordeste 0 -- -- 62
2020-03-16 09:00:00 13 6 Sudeste 39 Norte 0 -- -- 67
2020-03-16 08:00:00 11.6 16 Nordeste 54 Nordeste 0 -- -- 65
2020-03-16 07:00:00 10.4 19 Nordeste 60 Nordeste 0 -- -- 70
2020-03-16 06:00:00 10.5 17 Norte 44 Noroeste 0 -- -- 73
2020-03-16 05:00:00 10.6 17 Nordeste 35 Norte 0 -- -- 68
2020-03-16 04:00:00 11 4 Sur 29 Norte 0 -- -- 70
2020-03-16 03:00:00 10.7 5 Sudeste 17 Sudoeste 0 -- -- 76
2020-03-16 02:00:00 10.6 10 Sur 28 Sur 0 -- -- 78
2020-03-16 01:00:00 10.2 5 Sudoeste 27 Este 0 -- -- 81
2020-03-16 00:00:00 10.7 5 Este 14 Sur 0 -- -- 80
2020-03-15 23:00:00 10.9 10 Sur 19 Sur 0 -- -- 78
2020-03-15 22:00:00 10.8 3 Sur 15 Sudoeste 0 -- -- 83
2020-03-15 21:00:00 11.3 6 Sur 19 Nordeste 0 -- -- 81
2020-03-15 20:00:00 11.8 5 Este 12 Sur 0 -- -- 70
2020-03-15 19:00:00 12.3 6 Sur 17 Nordeste 0 -- -- 75
2020-03-15 18:00:00 12.7 13 Noroeste 45 Noroeste 0 -- -- 58
2020-03-15 17:00:00 14.4 14 Noroeste 37 Noroeste 0 -- -- 60
2020-03-15 16:00:00 16.4 14 Norte 33 Noroeste 0 -- -- 50
2020-03-15 15:00:00 15.7 13 Noroeste 38 Noroeste 0 -- -- 46
2020-03-15 14:00:00 15.2 15 Noroeste 32 Norte 0 -- -- 51
2020-03-15 13:00:00 16.2 4 Norte 22 Noroeste 0 -- -- 57
2020-03-15 12:00:00 14.9 5 Este 18 Este 0 -- -- 62
2020-03-15 11:00:00 15.2 4 Sur 14 Este 0 -- -- 57
2020-03-15 10:00:00 14.1 4 Este 19 Este 0 -- -- 62
2020-03-15 09:00:00 12.2 3 Nordeste 15 Nordeste 0 -- -- 71
2020-03-15 08:00:00 8.3 5 Noroeste 9 Noroeste 0 -- -- 86
2020-03-15 07:00:00 8.3 2 Oeste 7 Sudoeste 0 -- -- 85
2020-03-15 06:00:00 9.1 3 Sudoeste 6 Noroeste 0 -- -- 87
2020-03-15 05:00:00 8.8 3 Sudoeste 6 Sudoeste 0 -- -- 88
2020-03-15 04:00:00 8.9 0 Calma 7 Noroeste 0 -- -- 84
2020-03-15 03:00:00 9.7 4 Sudoeste 9 Oeste 0 -- -- 82
2020-03-15 02:00:00 10.6 2 Noroeste 10 Noroeste 0 -- -- 81
2020-03-15 01:00:00 10.3 4 Noroeste 7 Noroeste 0 -- -- 87
2020-03-15 00:00:00 9.7 3 Sudoeste 4 Sudoeste 0 -- -- 93
2020-03-14 23:00:00 10.3 0 Calma 4 Noroeste 0 -- -- 85
2020-03-14 22:00:00 11 3 Oeste 5 Sur 0 -- -- 82
2020-03-14 21:00:00 11.4 2 Sudeste 6 Sudeste 0 -- -- 82
2020-03-14 20:00:00 12.1 3 Sur 6 Sur 0 -- -- 84
2020-03-14 19:00:00 13.3 4 Sur 12 Sudeste 0 -- -- 77
2020-03-14 18:00:00 15.1 4 Sur 12 Sudeste 0 -- -- 69
2020-03-14 17:00:00 15.4 5 Sur 16 Sudeste 0 -- -- 70
2020-03-14 16:00:00 16.2 7 Sudeste 21 Sudeste 0 -- -- 68
2020-03-14 15:00:00 18.9 8 Sudeste 21 Sudeste 0 -- -- 59
2020-03-14 14:00:00 20.1 5 Sudeste 30 Sudeste 0 -- -- 55
2020-03-14 13:00:00 19.7 8 Sudeste 25 Sudeste 0 -- -- 56
2020-03-14 12:00:00 19.6 6 Sur 19 Este 0 -- -- 53
2020-03-14 11:00:00 18.6 6 Este 17 Sudeste 0 -- -- 55
2020-03-14 10:00:00 18 7 Este 14 Este 0 -- -- 55
2020-03-14 09:00:00 16.7 4 Nordeste 9 Este 0 -- -- 46
2020-03-14 08:00:00 14.1 2 Este 8 Sur 0 -- -- 44
2020-03-14 07:00:00 13.4 4 Oeste 11 Noroeste 0 -- -- 24
2020-03-14 06:00:00 12 2 Oeste 8 Sudoeste 0 -- -- 53
2020-03-14 05:00:00 12.9 2 Sur 4 Sudeste 0 -- -- 47
2020-03-14 04:00:00 13.6 3 Norte 6 Noroeste 0 -- -- 34
2020-03-14 03:00:00 14 0 Calma 6 Oeste 0 -- -- 38
2020-03-14 02:00:00 13.9 4 Oeste 8 Sudoeste 0 -- -- 39
2020-03-14 01:00:00 15 3 Sudoeste 6 Sudeste 0 -- -- 32
2020-03-14 00:00:00 15.3 4 Oeste 6 Noroeste 0 -- -- 31
2020-03-13 23:00:00 16.6 2 Este 6 Oeste 0 -- -- 30
2020-03-13 22:00:00 16.8 5 Oeste 6 Oeste 0 -- -- 36
2020-03-13 21:00:00 17.1 3 Oeste 5 Sudoeste 0 -- -- 38
2020-03-13 20:00:00 18 2 Sur 5 Sudoeste 0 -- -- 28
2020-03-13 19:00:00 18.9 2 Oeste 6 Este 0 -- -- 43
2020-03-13 18:00:00 20.1 4 Este 9 Este 0 -- -- 41
2020-03-13 17:00:00 22.1 4 Este 14 Este 0 -- -- 37
2020-03-13 16:00:00 23.8 3 Este 18 Este 0 -- -- 23
2020-03-13 15:00:00 23.3 5 Este 16 Este 0 -- -- 27
2020-03-13 14:00:00 24.4 5 Este 18 Este 0 -- -- 27
2020-03-13 13:00:00 25.4 6 Sudeste 18 Este 0 -- -- 18
2020-03-13 12:00:00 25.1 5 Sudeste 18 Este 0 -- -- 21
2020-03-13 11:00:00 24.4 7 Este 15 Este 0 -- -- 30
2020-03-13 10:00:00 23.8 5 Este 13 Este 0 -- -- 17
2020-03-13 09:00:00 22.1 4 Este 9 Este 0 -- -- 18
2020-03-13 08:00:00 18.2 0 Calma 9 Oeste 0 -- -- 19
2020-03-13 07:00:00 17.1 5 Oeste 10 Oeste 0 -- -- 20
2020-03-13 06:00:00 16.8 6 Oeste 10 Noroeste 0 -- -- 20
2020-03-13 05:00:00 17.3 4 Oeste 8 Noroeste 0 -- -- 20
2020-03-13 04:00:00 17 7 Oeste 10 Noroeste 0 -- -- 21
2020-03-13 03:00:00 16.8 8 Oeste 10 Oeste 0 -- -- 22
2020-03-13 02:00:00 17.1 4 Oeste 6 Oeste 0 -- -- 22
2020-03-13 01:00:00 17.6 6 Oeste 9 Noroeste 0 -- -- 22
2020-03-13 00:00:00 17.3 6 Oeste 9 Oeste 0 -- -- 23
2020-03-12 23:00:00 18 7 Oeste 9 Noroeste 0 -- -- 23
2020-03-12 22:00:00 18 6 Oeste 8 Oeste 0 -- -- 21
2020-03-12 21:00:00 18.4 5 Oeste 8 Oeste 0 -- -- 24
2020-03-12 20:00:00 18.8 4 Oeste 6 Oeste 0 -- -- 21
2020-03-12 19:00:00 20.3 4 Oeste 6 Sudoeste 0 -- -- 23
2020-03-12 18:00:00 22.8 3 Sudeste 12 Sudeste 0 -- -- 23
2020-03-12 17:00:00 24.3 4 Sudeste 16 Este 0 -- -- 32
2020-03-12 16:00:00 25.8 7 Este 20 Sudeste 0 -- -- 18
2020-03-12 15:00:00 27.2 6 Este 24 Sudeste 0 -- -- 18
2020-03-12 14:00:00 27.3 5 Sudeste 23 Sudeste 0 -- -- 16
2020-03-12 13:00:00 27.3 7 Este 27 Este 0 -- -- 15
2020-03-12 12:00:00 26.7 6 Este 21 Este 0 -- -- 15
2020-03-12 11:00:00 25.3 6 Sudeste 20 Sudeste 0 -- -- 15
2020-03-12 10:00:00 24.3 6 Este 17 Sudeste 0 -- -- 13
2020-03-12 09:00:00 22.4 6 Este 17 Sudeste 0 -- -- 13
2020-03-12 08:00:00 18.7 6 Sur 12 Sur 0 -- -- 13
2020-03-12 07:00:00 18 4 Sur 11 Sudoeste 0 -- -- 13
2020-03-12 06:00:00 16.5 3 Sur 8 Sudoeste 0 -- -- 14
2020-03-12 05:00:00 17.1 6 Sudoeste 13 Sur 0 -- -- 14
2020-03-12 04:00:00 17.6 3 Sur 8 Noroeste 0 -- -- 15
2020-03-12 03:00:00 17.9 3 Oeste 8 Sudoeste 0 -- -- 15
2020-03-12 02:00:00 17.3 5 Oeste 7 Noroeste 0 -- -- 16
2020-03-12 01:00:00 17.7 4 Oeste 7 Oeste 0 -- -- 15
2020-03-12 00:00:00 17.4 6 Oeste 10 Oeste 0 -- -- 16
2020-03-11 23:00:00 17.9 6 Oeste 8 Oeste 0 -- -- 15
2020-03-11 22:00:00 18.1 5 Oeste 8 Noroeste 0 -- -- 15
2020-03-11 21:00:00 18.6 4 Oeste 8 Oeste 0 -- -- 15
2020-03-11 20:00:00 19.9 2 Oeste 6 Oeste 0 -- -- 13
2020-03-11 19:00:00 21.8 3 Sudeste 8 Sudeste 0 -- -- 11
2020-03-11 18:00:00 23.2 4 Sudeste 13 Sudeste 0 -- -- 11
2020-03-11 17:00:00 23.9 4 Este 23 Sudeste 0 -- -- 12
2020-03-11 16:00:00 26.1 8 Sudeste 19 Este 0 -- -- 9
2020-03-11 15:00:00 25.2 5 Este 15 Sudeste 0 -- -- 12
2020-03-11 14:00:00 26.4 6 Este 21 Sudeste 0 -- -- 15
2020-03-11 13:00:00 26.2 5 Este 18 Este 0 -- -- 15
2020-03-11 12:00:00 25 4 Este 18 Este 0 -- -- 14
2020-03-11 11:00:00 23 5 Este 12 Este 0 -- -- 14
2020-03-11 10:00:00 20 2 Nordeste 7 Este 0 -- -- 16
2020-03-11 09:00:00 18.9 4 Sudoeste 9 Sur 0 -- -- 16
2020-03-11 08:00:00 17.5 6 Oeste 8 Noroeste 0 -- -- 14
2020-03-11 07:00:00 16.9 3 Oeste 5 Noroeste 0 -- -- 14
2020-03-11 06:00:00 16.7 4 Oeste 7 Sudoeste 0 -- -- 13
2020-03-11 05:00:00 17.1 5 Sudoeste 6 Sudoeste 0 -- -- 13
2020-03-11 04:00:00 17.1 2 Oeste 9 Noroeste 0 -- -- 14
2020-03-11 03:00:00 16.6 7 Noroeste 9 Oeste 0 -- -- 14
2020-03-11 02:00:00 16.6 5 Oeste 8 Oeste 0 -- -- 13
2020-03-11 01:00:00 16.8 6 Oeste 8 Oeste 0 -- -- 12
2020-03-11 00:00:00 16.8 5 Oeste 12 Oeste 0 -- -- 12
2020-03-10 23:00:00 16.5 6 Oeste 8 Noroeste 0 -- -- 18
2020-03-10 22:00:00 17.5 3 Sur 9 Oeste 0 -- -- 35
2020-03-10 21:00:00 17.4 3 Sudoeste 9 Noroeste 0 -- -- 40
2020-03-10 20:00:00 17.2 7 Oeste 9 Noroeste 0 -- -- 42
2020-03-10 19:00:00 18.8 0 Calma 8 Sudeste 0 -- -- 44
2020-03-10 18:00:00 21.6 3 Sudeste 12 Sudeste 0 -- -- 38
2020-03-10 17:00:00 24 3 Sudeste 14 Este 0 -- -- 26
2020-03-10 16:00:00 25.1 5 Este 21 Sudeste 0 -- -- 23
2020-03-10 15:00:00 25.7 7 Este 21 Este 0 -- -- 19
2020-03-10 14:00:00 25.4 6 Este 19 Sudeste 0 -- -- 18
2020-03-10 13:00:00 26.6 4 Este 19 Este 0 -- -- 34
2020-03-10 12:00:00 26.6 8 Este 15 Este 0 -- -- 25
2020-03-10 11:00:00 26.8 7 Este 15 Sudeste 0 -- -- 20
2020-03-10 10:00:00 24.9 5 Este 15 Sudeste 0 -- -- 14
2020-03-10 09:00:00 21.2 5 Sudeste 14 Sur 0 -- -- 16
2020-03-10 08:00:00 17.2 3 Oeste 12 Oeste 0 -- -- 18
2020-03-10 07:00:00 16.5 6 Oeste 10 Sudoeste 0 -- -- 17
2020-03-10 06:00:00 17.2 6 Sudoeste 10 Sur 0 -- -- 16
2020-03-10 05:00:00 17.2 6 Noroeste 13 Noroeste 0 -- -- 17
2020-03-10 04:00:00 18.7 3 Sudoeste 17 Sudeste 0 -- -- 16
2020-03-10 03:00:00 18.6 5 Nordeste 21 Este 0 -- -- 17
2020-03-10 02:00:00 18.4 5 Nordeste 27 Este 0 -- -- 18
2020-03-10 01:00:00 18.9 9 Nordeste 25 Este 0 -- -- 17
2020-03-10 00:00:00 18.5 6 Nordeste 27 Nordeste 0 -- -- 19
2020-03-09 23:00:00 18.9 17 Nordeste 39 Nordeste 0 -- -- 20
2020-03-09 22:00:00 18.7 14 Nordeste 31 Nordeste 0 -- -- 20
2020-03-09 21:00:00 18.4 10 Nordeste 32 Este 0 -- -- 22
2020-03-09 20:00:00 18.5 13 Nordeste 33 Nordeste 0 -- -- 22
2020-03-09 19:00:00 19 10 Este 26 Nordeste 0 -- -- 22
2020-03-09 18:00:00 20.8 5 Este 26 Este 0 -- -- 20
2020-03-09 17:00:00 21.9 12 Este 35 Nordeste 0 -- -- 19
2020-03-09 16:00:00 23.9 7 Este 37 Este 0 -- -- 19
2020-03-09 15:00:00 24.3 10 Este 29 Este 0 -- -- 17
2020-03-09 14:00:00 25.2 4 Este 23 Este 0 -- -- 17
2020-03-09 13:00:00 24.3 8 Este 30 Este 0 -- -- 18
2020-03-09 12:00:00 24.1 9 Este 26 Este 0 -- -- 17
2020-03-09 11:00:00 23.1 10 Este 27 Este 0 -- -- 18
2020-03-09 10:00:00 22.5 8 Este 22 Nordeste 0 -- -- 19
2020-03-09 09:00:00 20.3 7 Este 27 Este 0 -- -- 21
2020-03-09 08:00:00 17 6 Este 29 Este 0 -- -- 24
2020-03-09 07:00:00 17 12 Este 34 Este 0 -- -- 23
2020-03-09 06:00:00 17.5 13 Este 37 Este 0 -- -- 23
2020-03-09 05:00:00 17.8 13 Este 30 Nordeste 0 -- -- 23
2020-03-09 04:00:00 18.3 10 Este 32 Este 0 -- -- 21
2020-03-09 03:00:00 19.4 16 Nordeste 38 Este 0 -- -- 19
2020-03-09 02:00:00 20 18 Este 39 Este 0 -- -- 17
2020-03-09 01:00:00 20.3 20 Nordeste 39 Este 0 -- -- 17
2020-03-09 00:00:00 20 14 Este 28 Este 0 -- -- 17
2020-03-08 23:00:00 20.1 15 Este 31 Este 0 -- -- 17
2020-03-08 22:00:00 19.8 11 Este 30 Nordeste 0 -- -- 16
2020-03-08 21:00:00 19.9 12 Nordeste 28 Nordeste 0 -- -- 16
2020-03-08 20:00:00 19.8 10 Este 26 Este 0 -- -- 16
2020-03-08 19:00:00 20.1 8 Este 31 Este 0 -- -- 16
2020-03-08 18:00:00 21.6 9 Este 24 Este 0 -- -- 13
2020-03-08 17:00:00 24 5 Sudeste 26 Este 0 -- -- 14
2020-03-08 16:00:00 25 7 Sudeste 27 Este 0 -- -- 13
2020-03-08 15:00:00 26 6 Este 26 Este 0 -- -- 13
2020-03-08 14:00:00 26.5 5 Este 27 Sudeste 0 -- -- 13
2020-03-08 13:00:00 25.2 10 Este 32 Este 0 -- -- 13
2020-03-08 12:00:00 23.1 16 Este 41 Este 0 -- -- 18
2020-03-08 11:00:00 23.8 15 Este 39 Este 0 -- -- 18
2020-03-08 10:00:00 23.2 14 Este 35 Este 0 -- -- 15
2020-03-08 09:00:00 21.9 13 Este 37 Este 0 -- -- 17
2020-03-08 08:00:00 19.3 10 Este 30 Este 0 -- -- 17
2020-03-08 07:00:00 18.9 10 Este 30 Este 0 -- -- 17
2020-03-08 06:00:00 19.3 10 Este 36 Nordeste 0 -- -- 16
2020-03-08 05:00:00 19.6 10 Este 30 Este 0 -- -- 15
2020-03-08 04:00:00 18.9 7 Este 27 Este 0 -- -- 17
2020-03-08 03:00:00 19.4 6 Sur 18 Sur 0 -- -- 18
2020-03-08 02:00:00 20 6 Este 17 Este 0 -- -- 15
2020-03-08 01:00:00 18.9 4 Noroeste 9 Sudoeste 0 -- -- 17
2020-03-08 00:00:00 19 6 Sudoeste 12 Sudeste 0 -- -- 19